Regional Weather Roundup
Issued by NWS

Home | Current Version | Previous Version | Graphics & Text | Print | Product List | Glossary On
Versions: 1 2 3 4 5 6 7 8 9 10 11 12 13 14 15 16 17 18 19 20 21 22 23 24 25 26 27 28 29 30 31 32 33 34 35 36 37 38 39 40 41 42 43 44 45 46 47 48
000
ASUS45 KCYS 271510
RWRWY

WYOMING REGIONAL WEATHER ROUNDUP
NATIONAL WEATHER SERVICE CHEYENNE WY
800 AM MST THU NOV 27 2014

NOTE:  "FAIR" INDICATES FEW OR NO CLOUDS BELOW 12,000 FEET
WITH NO SIGNIFICANT WEATHER AND/OR OBSTRUCTIONS TO VISIBILITY.

WYZ001-271600-
YELLOWSTONE NATIONAL PARK

CITY           SKY/WX    TMP DP  RH WIND       PRES   REMARKS
LK YELLOWSTONE   N/A     29  26  89 CALM      30.21S
W YELLOWSTONE  NOT AVBL

$$
WYZ002>013-054>058-071-098>099-271600-
NORTHERN WYOMING

CITY           SKY/WX    TMP DP  RH WIND       PRES   REMARKS
JACKSON        CLOUDY    39  28  65 SW8       30.21R WCI  34
CODY           MOCLDY    46  27  46 SW16      30.01S
GREYBULL       MOCLDY    23  21  92 E5        30.07F WCI  17
WORLAND        MOCLDY    20  17  88 CALM      30.08S
SHERIDAN       CLOUDY    24  20  84 NW3       29.97F
BUFFALO        CLOUDY    39  26  59 E3        30.00F
GILLETTE       CLOUDY    41  29  62 SW15      30.00F
HULETT           N/A    N/A N/A N/A MISG        N/A
NEWCASTLE      FAIR      21  21 100 N3        30.09S

$$
WYZ014>020-022>026-101>103-271600-
CENTRAL WYOMING

CITY           SKY/WX    TMP DP  RH WIND       PRES   REMARKS
BIG PINEY      MOCLDY   N/A N/A N/A E3        30.31R
PINEDALE       PTSUNNY   16  14  93 W3        30.32R
DUBOIS         FAIR      39  21  48 W20G30    30.17R WCI  30
LANDER         MOCLDY    28  22  78 N5        30.12R WCI  23
RIVERTON       CLOUDY    33  23  66 E3        30.14R
CASPER         CLOUDY    41  25  53 SW16      30.12S
DOUGLAS        CLOUDY    41  28  60 N7        30.10S

$$
WYZ021-027>030-104>119-271600-
SOUTHERN WYOMING

CITY           SKY/WX    TMP DP  RH WIND       PRES   REMARKS
EVANSTON       PTCLDY    35  20  54 SW16      30.33R WCI  25
FORT BRIDGER   FAIR      42  20  41 SW17      30.33S
ROCK SPRINGS   CLOUDY    34  19  54 W7        30.31S WCI  28
DIXON          FAIR      32  25  77 CALM      30.39R
RAWLINS        CLOUDY    40  20  44 W17       30.27F WCI  31
SARATOGA       FAIR      37  21  52 SW12      30.32S WCI  30
LARAMIE        CLOUDY    39  18  42 SW21G29   30.23R WCI  29
CHEYENNE       MOCLDY    46  18  32 W22G32    30.17R
TORRINGTON     CLOUDY    20  18  92 E5        30.12R WCI  13
PINE BLUFFS    PTSUNNY   30  25  80 SW3       30.18R

$$


USA.gov is the U.S. government's official web portal to all federal, state and local government web resources and services.